This demonstration page uses our WeatherBlox Daily Observations layout. Learn more.

Left ArrowRight Arrow

39.51506, -84.39828

Hourly Observations for October 15, 2020

Temp ( °F °C ) Dew Point ( °F °C ) Humidity (%) Winds ( mph kmh ) Pressure ( in mb ) Visibility ( mi km ) Precip ( " mm )
12:15 am 00:15 Clear 63 17.3 46 7.7 53 53 WSW 8 13 29.78 1009 10 16.0934 0 0
12:35 am 00:35 Clear 64 17.6 46 7.9 53 53 WSW 8 13 29.78 1008 10 16.0934 0 0
12:55 am 00:55 Clear 60 15.6 46 7.9 60 60 WSW 7 11 29.78 1008 10 16.0934 0 0
1:15 am 01:15 Clear 60 15.4 47 8.2 62 62 WSW 7 11 29.78 1008 10 16.0934 0 0
1:35 am 01:35 Clear 60 15.4 47 8.3 63 63 WSW 6 9 29.78 1008 10 16.0934 0 0
1:55 am 01:55 Clear 62 16.6 47 8.6 59 59 SW 9 15 29.77 1008 10 16.0934 0 0
2:15 am 02:15 Clear 64 17.5 47 8.6 56 56 WSW 13 20 29.76 1008 10 16.0934 0 0
2:35 am 02:35 Cloudy 64 17.9 49 9.2 57 57 W 10 17 29.78 1008 10 16.0934 0 0
2:55 am 02:55 Cloudy 67 19.3 50 9.8 54 54 W 14 22 29.79 1009 10 16.0934 0 0
3:15 am 03:15 Clear 65 18.5 50 9.8 57 57 W 14 22 29.79 1009 10 16.0934 0 0
3:35 am 03:35 Clear 64 17.8 50 9.9 60 60 W 12 19 29.79 1009 10 16.0934 0 0
3:55 am 03:55 Clear 64 17.8 50 10.2 61 61 W 12 19 29.79 1009 10 16.0934 0 0
4:15 am 04:15 Clear 63 17.4 51 10.4 64 64 W 12 19 29.79 1009 10 16.0934 0 0
4:35 am 04:35 Clear 63 17.2 51 10.6 65 65 W 10 17 29.78 1009 10 16.0934 0 0
4:55 am 04:55 Clear 63 17 51 10.8 67 67 W 10 17 29.78 1009 10 16.0934 0 0
5:15 am 05:15 Clear 62 16.8 52 11 69 69 W 13 20 29.78 1009 10 16.0934 0 0
5:35 am 05:35 Clear 61 16.2 52 11 71 71 W 8 13 29.79 1009 10 16.0934 0 0
5:55 am 05:55 Clear 60 15.7 52 11.1 74 74 W 8 13 29.8 1009 10 16.0934 0 0
6:15 am 06:15 Clear 60 15.5 52 11.1 75 75 W 7 11 29.82 1010 10 16.0934 0 0
6:35 am 06:35 Partly Cloudy 59 15.2 52 11.2 77 77 W 6 9 29.83 1010 10 16.0934 0 0
6:55 am 06:55 Clear 59 15.1 53 11.4 79 79 W 7 11 29.83 1010 10 16.0934 0 0
7:15 am 07:15 Clear 58 14.7 53 11.4 81 81 W 6 9 29.84 1010 10 16.0934 0 0
7:35 am 07:35 Mostly Cloudy 59 14.9 53 11.8 82 82 WSW 5 7 29.84 1010 10 16.0934 0 0
7:55 am 07:55 Cloudy 60 15.5 53 11.9 79 79 WNW 6 9 29.84 1010 10 16.0934 0 0
8:15 am 08:15 Cloudy 60 15.5 54 12 80 80 W 7 11 29.84 1010 10 16.0934 0 0
8:35 am 08:35 Cloudy 60 15.8 54 12.1 79 79 W 8 13 29.85 1011 10 16.0934 0 0
8:55 am 08:55 Cloudy 60 15.8 54 12.3 80 80 W 7 11 29.87 1012 10 16.0934 0 0
9:15 am 09:15 Cloudy 61 16.1 54 12.1 77 77 W 6 9 29.88 1012 10 16.0934 0 0
9:35 am 09:35 Cloudy 62 16.4 53 11.8 74 74 W 6 9 29.89 1012 10 16.0934 0 0
9:55 am 09:55 Cloudy 62 16.6 53 11.5 72 72 Calm 29.89 1012 10 16.0934 0 0
10:15 am 10:15 Cloudy 62 16.9 51 10.3 65 65 Calm 29.9 1013 10 16.0934 0 0
10:35 am 10:35 Cloudy 63 17.3 48 8.9 58 58 NNW 9 15 29.91 1013 10 16.0934 0 0
10:55 am 10:55 Cloudy 62 16.7 44 6.4 51 51 NNE 9 15 29.91 1013 10 16.0934 0 0
11:15 am 11:15 Cloudy 62 16.4 43 6.3 51 51 N 13 20 29.93 1014 10 16.0934 0 0
11:35 am 11:35 Cloudy 60 15.6 42 5.5 51 51 N 14 22 29.95 1014 10 16.0934 0 0
11:55 am 11:55 Cloudy 59 14.9 43 6 55 55 N 15 24 29.98 1015 10 16.0934 0 0
12:15 pm 12:15 Cloudy 57 13.9 44 6.6 62 62 N 15 24 29.98 1015 10 16.0934 0 0
12:30 pm 12:30 Cloudy with Light Rain 55 12.9 45 7.4 69 69 N 12 19 29.99 1016 10 16.0934 0 0
12:55 pm 12:55 Cloudy 54 12.3 46 7.7 74 74 N 12 19 29.99 1016 10 16.0934 0 0
1:15 pm 13:15 Cloudy with Light Rain 53 11.5 48 8.8 84 84 NNW 10 17 30.01 1016 10 16.0934 0 0
1:35 pm 13:35 Cloudy with Rain 52 10.9 49 9.4 91 91 NNW 6 9 30 1016 10 16.0934 0.01 0.254
1:55 pm 13:55 Cloudy with Light Rain 51 10.7 49 9.3 91 91 Calm 30.01 1016 7 11.26538 0.03 0.762
2:15 pm 14:15 Cloudy with Light Rain 51 10.7 49 9.6 93 93 Calm 30.01 1016 10 16.0934 0.01 0.254
2:35 pm 14:35 Cloudy with Light Rain 51 10.8 50 10.1 95 95 Calm 30.01 1016 10 16.0934 0.02 0.508
2:55 pm 14:55 Cloudy with Light Rain 51 10.8 50 10 95 95 Calm 30.02 1016 10 16.0934 0.02 0.508
3:15 pm 15:15 Cloudy with Light Rain 52 10.9 51 10.4 97 97 W 3 6 30.02 1016 10 16.0934 0.01 0.254
3:35 pm 15:35 Cloudy with Light Rain 52 11 51 10.3 95 95 W 6 9 30.02 1016 10 16.0934 0.01 0.254
3:55 pm 15:55 Cloudy 52 11 51 10.4 96 96 W 5 7 30.02 1016 10 16.0934 0.01 0.254
4:15 pm 16:15 Cloudy with Light Rain 52 10.9 51 10.3 96 96 W 5 7 30.02 1016 10 16.0934 0 0
4:35 pm 16:35 Cloudy with Light Rain 52 11 51 10.5 97 97 Calm 30.02 1016 10 16.0934 0.01 0.254
4:55 pm 16:55 Cloudy with Light Rain 52 11 51 10.5 97 97 WNW 3 6 30.03 1017 10 16.0934 0.01 0.254
5:15 pm 17:15 Cloudy with Light Rain 52 11 51 10.5 97 97 W 3 6 30.04 1017 10 16.0934 0.01 0.254
5:35 pm 17:35 Cloudy with Light Rain 52 10.9 51 10.3 96 96 W 5 7 30.04 1017 10 16.0934 0.02 0.508
5:55 pm 17:55 Cloudy with Light Rain 52 10.9 51 10.3 96 96 Calm 30.04 1017 10 16.0934 0.02 0.508
6:15 pm 18:15 Cloudy with Light Rain 52 10.9 51 10.5 97 97 Calm 30.04 1017 10 16.0934 0 0
6:35 pm 18:35 Cloudy with Light Rain 52 10.9 51 10.5 97 97 W 7 11 30.05 1017 10 16.0934 0 0
6:55 pm 18:55 Cloudy with Light Rain 52 10.9 51 10.5 97 97 W 5 7 30.05 1017 5 8.0467 0.01 0.254
7:15 pm 19:15 Cloudy with Light Rain 52 10.9 51 10.5 97 97 Calm 30.05 1017 10 16.0934 0 0
7:35 pm 19:35 Cloudy with Light Rain 52 10.9 51 10.6 98 98 NNW 9 15 30.07 1018 10 16.0934 0.01 0.254
7:55 pm 19:55 Mostly Cloudy 50 10.1 48 9.1 94 94 NNW 9 15 30.09 1019 10 16.0934 0.01 0.254
8:15 pm 20:15 Partly Cloudy 49 9.5 47 8.2 92 92 NNW 8 13 30.09 1019 10 16.0934 0 0
8:35 pm 20:35 Clear 48 9.1 46 7.6 90 90 NNW 6 9 30.1 1019 10 16.0934 0 0
8:55 pm 20:55 Clear 48 9 46 7.7 92 92 Calm 30.1 1019 10 16.0934 0 0
9:15 pm 21:15 Clear 48 8.8 45 7.4 91 91 WNW 3 6 30.11 1020 10 16.0934 0 0
9:35 pm 21:35 Clear 47 8.6 46 7.5 93 93 Calm 30.12 1020 10 16.0934 0 0
9:55 pm 21:55 Clear 47 8.6 46 7.5 93 93 Calm 30.12 1020 10 16.0934 0 0
10:15 pm 22:15 Clear 47 8.5 45 7.3 92 92 Calm 30.13 1020 10 16.0934 0 0
10:35 pm 22:35 Clear 47 8.3 45 7.2 93 93 WNW 5 7 30.14 1021 10 16.0934 0 0
10:55 pm 22:55 Clear 47 8.3 45 7.2 93 93 WNW 5 7 30.15 1021 10 16.0934 0 0
11:15 pm 23:15 Clear 47 8.4 45 7.1 92 92 WNW 5 7 30.16 1021 10 16.0934 0 0
11:35 pm 23:35 Clear 47 8.3 45 7 92 92 WNW 3 6 30.16 1021 10 16.0934 0 0
11:55 pm 23:55 Clear 47 8.2 45 7 92 92 Calm 30.16 1021 10 16.0934 0 0

Powered by AerisWeather